Regional Weather Roundup
Issued by NWS

Home | Current Version | Previous Version | Graphics & Text | Print | Product List | Glossary On
Versions: 1 2 3 4 5 6 7 8 9 10 11 12 13 14 15 16 17 18 19 20 21 22 23 24 25 26 27 28 29 30 31 32 33 34 35 36 37 38 39 40 41 42 43 44 45 46 47 48 49 50
321
ASUS43 KLMK 251610
RWRKY
KENTUCKY REGIONAL WEATHER ROUNDUP
NATIONAL WEATHER SERVICE LOUISVILLE KY
1200 PM EDT FRI MAY 25 2018

NOTE "FAIR" INDICATES FEW OR NO CLOUDS BELOW 12,000 FEET
WITH NO SIGNIFICANT WEATHER AND/OR OBSTRUCTIONS TO VISIBILITY.

KYZ001>023-026-027-061>063-070>075-251700-
WESTERN AND SOUTH CENTRAL KENTUCKY

CITY           SKY/WX    TMP DP  RH WIND       PRES   REMARKS
PADUCAH        PTSUNNY   84  69  60 SW6       29.98S
HENDERSON      NOT AVBL
OWENSBORO      FAIR      83  65  54 SW5       30.00S
HOPKINSVILLE   FAIR      85  66  53 SW5       30.00S
BOWLING GREEN  FAIR      84  66  54 VRB3      30.00F
GLASGOW        FAIR      83  67  58 CALM      30.01S
$$

KYZ024-025-028>034-038-045-046-053-251700-
NORTH CENTRAL KENTUCKY

CITY           SKY/WX    TMP DP  RH WIND       PRES   REMARKS
LOUISVILLE/SDF FAIR      84  62  47 W6        29.99F
LOUISVILLE/LOU FAIR      83  62  49 VRB6      30.00F
FORT KNOX      FAIR      82  62  51 CALM      30.01F
$$

KYZ035>037-039>044-047>052-055>060-089>105-251700-
NORTHEAST KENTUCKY

CITY           SKY/WX    TMP DP  RH WIND       PRES   REMARKS
LEXINGTON      FAIR      83  65  54 W7        30.03S
COVINGTON      FAIR      81  58  45 SW7       30.01F
FRANKFORT      FAIR      83  62  49 VRB3      30.01S
$$

KYZ054-064>069-076>088-106>120-251700-
SOUTHEAST KENTUCKY

CITY           SKY/WX    TMP DP  RH WIND       PRES   REMARKS
JACKSON        PTSUNNY   80  68  66 CALM      30.05F
LONDON         FAIR      81  67  62 VRB5      30.04F
SOMERSET       FAIR      81  66  61 MISG      30.04F
MIDDLESBORO    FAIR      82  68  63 S7        30.07S
MONTICELLO     FAIR      82  68  61 W13       30.04F
$$





USA.gov is the U.S. government's official web portal to all federal, state and local government web resources and services.